EW9394 Weather Reports


time (UTC)temp
F
wind
direction
speed
knots
gust
knots
rain 1hr
in
rain 24hr
in
rain mn
in
humidity
%
barometer
mb
20260509231117 88 307 3.5 4.3 0.00 0.00 0.00 49 1009.6
20260509230614 88 299 1.7 1.7 0.00 0.00 0.00 50 1009.5
20260509230111 87 156 0.9 0.9 0.00 0.00 0.00 51 1009.6
20260509225607 87 140 0.0 0.9 0.00 0.00 0.00 51 1009.7
20260509225102 88 84 0.0 0.9 0.00 0.00 0.00 51 1009.7
20260509224557 88 88 0.9 0.9 0.00 0.00 0.00 51 1009.4
20260509224055 88 78 0.0 0.9 0.00 0.00 0.00 51 1009.5
20260509223552 87 96 0.9 0.9 0.00 0.00 0.00 52 1009.7
20260509223049 88 169 0.9 1.7 0.00 0.00 0.00 51 1009.6
20260509222545 89 112 3.5 4.3 0.00 0.00 0.00 50 1009.5
20260509222041 88 186 0.0 0.0 0.00 0.00 0.00 53 1009.2
20260509221537 88 125 0.9 0.9 0.00 0.00 0.00 54 1009.5
20260509221033 87 128 1.7 1.7 0.00 0.00 0.00 55 1009.1
20260509220529 89 68 0.9 0.9 0.00 0.00 0.00 53 1009.5
20260509220026 89 156 0.0 0.9 0.00 0.00 0.00 52 1009.5
20260509215521 89 84 0.9 0.9 0.00 0.00 0.00 53 1009.5
20260509215019 88 129 0.9 0.9 0.00 0.00 0.00 54 1009.7
20260509214516 88 113 0.9 0.9 0.00 0.00 0.00 52 1009.5
20260509214013 90 239 0.0 0.9 0.00 0.00 0.00 52 1009.7
20260509213509 89 72 0.9 1.7 0.00 0.00 0.00 53 1009.7
20260509213006 88 78 0.9 0.9 0.00 0.00 0.00 54 1009.9
20260509212503 88 186 0.0 0.9 0.00 0.00 0.00 54 1009.8
20260509211959 89 230 0.0 0.0 0.00 0.00 0.00 54 1009.9
20260509211455 89 140 0.0 0.9 0.00 0.00 0.00 54 1010.0
20260509210952 89 98 1.7 2.6 0.00 0.00 0.00 55 1010.1
20260509210448 89 57 1.7 2.6 0.00 0.00 0.00 54 1010.1
20260509205944 89 88 0.0 0.9 0.00 0.00 0.00 54 1010.1
20260509205439 88 165 0.0 0.0 0.00 0.00 0.00 56 1010.0
20260509204935 88 131 0.9 0.9 0.00 0.00 0.00 56 1010.4
20260509204426 88 133 0.0 0.9 0.00 0.00 0.00 57 1010.3
20260509203923 87 143 0.9 0.9 0.00 0.00 0.00 56 1010.4
20260509203418 88 105 1.7 2.6 0.00 0.00 0.00 58 1010.6
20260509202916 88 105 1.7 1.7 0.00 0.00 0.00 56 1010.4
20260509202412 88 166 1.7 1.7 0.00 0.00 0.00 57 1010.5
20260509201907 88 64 0.9 0.9 0.00 0.00 0.00 59 1010.7
20260509201402 87 85 0.9 1.7 0.00 0.00 0.00 60 1010.9
20260509200900 89 150 0.0 0.9 0.00 0.00 0.00 57 1010.8
20260509200359 88 79 0.9 1.7 0.00 0.00 0.00 58 1010.5
20260509195857 87 88 0.0 0.9 0.00 0.00 0.00 60 1010.6
20260509195356 87 68 0.0 0.9 0.00 0.00 0.00 61 1010.7
20260509194851 89 169 0.9 0.9 0.00 0.00 0.00 58 1010.9
20260509194347 88 90 0.9 1.7 0.00 0.00 0.00 58 1011.0
20260509193844 89 103 0.9 1.7 0.00 0.00 0.00 59 1011.0
20260509193344 88 155 0.0 0.9 0.00 0.00 0.00 60 1011.0
20260509192840 87 247 1.7 1.7 0.00 0.00 0.00 60 1010.8
20260509192336 88 267 1.7 1.7 0.00 0.00 0.00 59 1010.9
20260509191832 88 20 1.7 4.3 0.00 0.00 0.00 61 1011.1
20260509191328 87 210 2.6 4.3 0.00 0.00 0.00 62 1011.1
20260509190824 86 357 2.6 4.3 0.00 0.00 0.00 63 1011.2
20260509190321 86 253 0.9 0.9 0.00 0.00 0.00 65 1011.1
20260509185818 86 83 0.0 0.0 0.00 0.00 0.00 64 1011.2
20260509185314 86 131 0.9 0.9 0.00 0.00 0.00 64 1011.3
20260509184812 87 273 1.7 1.7 0.00 0.00 0.00 63 1011.3
20260509184309 86 248 0.0 0.9 0.00 0.00 0.00 64 1011.3
20260509183806 86 187 0.0 0.9 0.00 0.00 0.00 65 1011.2
20260509183301 86 308 2.6 4.3 0.00 0.00 0.00 64 1011.4
20260509182756 86 182 0.0 0.9 0.00 0.00 0.00 65 1011.3
20260509182254 84 243 0.0 0.0 0.00 0.00 0.00 67 1011.2
20260509181751 86 311 4.3 6.1 0.00 0.00 0.00 63 1011.3
20260509181249 86 6 0.9 1.7 0.00 0.00 0.00 64 1011.6
20260509180746 86 289 0.9 1.7 0.00 0.00 0.00 67 1011.6
20260509180242 84 291 1.7 2.6 0.00 0.00 0.00 67 1011.7
20260509175739 84 217 0.9 1.7 0.00 0.00 0.00 68 1011.8
20260509175235 85 11 3.5 5.2 0.00 0.00 0.00 66 1011.6
20260509174731 85 166 0.0 0.9 0.00 0.00 0.00 66 1011.8
20260509174226 85 21 0.9 1.7 0.00 0.00 0.00 67 1011.7
20260509173723 84 52 0.9 0.9 0.00 0.00 0.00 68 1011.8
20260509173219 84 162 1.7 2.6 0.00 0.00 0.00 67 1011.8
20260509172715 83 44 0.9 1.7 0.00 0.00 0.00 68 1011.8
20260509172211 84 242 0.9 0.9 0.00 0.00 0.00 69 1012.1
20260509171707 83 331 0.9 1.7 0.00 0.00 0.00 68 1011.9
20260509171203 82 55 0.9 1.7 0.00 0.00 0.00 69 1012.2
20260509170700 82 312 2.6 2.6 0.00 0.00 0.00 69 1012.1
20260509170156 83 17 3.5 5.2 0.00 0.00 0.00 69 1012.2
20260509165655 83 258 0.9 0.9 0.00 0.00 0.00 71 1012.0
20260509165150 82 320 2.6 4.3 0.00 0.00 0.00 70 1012.0
20260509164646 81 305 1.7 1.7 0.00 0.00 0.00 71 1012.1
20260509164142 82 256 0.9 1.7 0.00 0.00 0.00 71 1012.2
20260509163640 81 147 0.9 0.9 0.00 0.00 0.00 73 1012.2
20260509163136 80 1 0.9 1.7 0.00 0.00 0.00 74 1012.2
20260509162633 79 259 0.9 0.9 0.00 0.00 0.00 75 1012.1
20260509162129 80 296 2.6 2.6 0.00 0.00 0.00 74 1012.3
20260509161625 79 295 1.7 1.7 0.00 0.00 0.00 75 1012.0
20260509161120 79 270 3.5 4.3 0.00 0.00 0.00 75 1012.0
20260509160617 79 285 1.7 2.6 0.00 0.00 0.00 76 1012.3
20260509160112 79 245 0.0 0.9 0.00 0.00 0.00 76 1012.3
20260509155608 79 335 0.9 0.9 0.00 0.00 0.00 77 1012.0
20260509155105 78 352 3.5 5.2 0.00 0.00 0.00 77 1012.1
20260509154600 78 13 3.5 4.3 0.00 0.00 0.00 77 1012.1
20260509154058 78 284 1.7 2.6 0.00 0.00 0.00 78 1012.0
20260509153555 77 17 3.5 5.2 0.00 0.00 0.00 79 1012.0
20260509153052 77 334 1.7 2.6 0.00 0.00 0.00 79 1012.0
20260509152548 77 270 2.6 4.3 0.00 0.00 0.00 78 1012.0
20260509152045 77 272 0.9 0.9 0.00 0.00 0.00 79 1011.8
20260509151541 77 280 2.6 4.3 0.00 0.00 0.00 80 1012.0
20260509151039 77 64 1.7 2.6 0.00 0.00 0.00 80 1012.0
20260509150536 76 131 0.9 0.9 0.00 0.00 0.00 81 1012.0
20260509150035 77 302 1.7 2.6 0.00 0.00 0.00 79 1012.2
20260509145530 77 304 2.6 4.3 0.00 0.00 0.00 80 1012.1
20260509145025 76 286 2.6 4.3 0.00 0.00 0.00 81 1012.0
20260509144523 76 329 2.6 2.6 0.00 0.00 0.00 82 1012.3
20260509144020 75 278 2.6 2.6 0.00 0.00 0.00 84 1012.4
20260509143517 75 261 1.7 1.7 0.00 0.00 0.00 85 1012.0
20260509143015 74 335 3.5 4.3 0.00 0.00 0.00 85 1012.2
20260509142510 75 285 2.6 2.6 0.00 0.00 0.00 85 1011.9
20260509142005 74 259 0.9 0.9 0.00 0.00 0.00 86 1011.9
20260509141502 74 254 0.0 0.0 0.00 0.00 0.00 86 1012.0
20260509140959 74 291 2.6 2.6 0.00 0.00 0.00 86 1011.9
20260509140455 73 228 0.9 0.9 0.00 0.00 0.00 88 1011.8
20260509135954 73 290 3.5 5.2 0.00 0.00 0.00 89 1011.8
20260509135451 72 322 1.7 2.6 0.00 0.00 0.00 89 1011.7
20260509134948 72 285 1.7 1.7 0.00 0.00 0.00 90 1011.8
20260509134445 72 300 0.9 1.7 0.00 0.00 0.00 90 1011.8
20260509133943 72 336 4.3 6.1 0.00 0.00 0.00 91 1011.7
20260509133439 71 274 2.6 2.6 0.00 0.00 0.00 92 1011.6
20260509132937 71 326 2.6 2.6 0.00 0.00 0.00 93 1011.6
20260509132435 71 285 0.9 1.7 0.00 0.00 0.00 93 1011.4
20260509131932 71 282 2.6 5.2 0.00 0.00 0.00 94 1011.5
20260509131429 71 273 4.3 5.2 0.00 0.00 0.00 95 1011.4
20260509130926 70 301 2.6 2.6 0.00 0.00 0.00 95 1011.6
20260509130421 70 318 0.9 1.7 0.00 0.00 0.00 96 1011.6
20260509125918 70 249 0.9 1.7 0.00 0.00 0.00 96 1011.5
20260509125415 69 284 0.9 0.9 0.00 0.00 0.00 97 1011.4
20260509124911 69 272 2.6 2.6 0.00 0.00 0.00 97 1011.5
20260509124408 69 294 0.9 2.6 0.00 0.00 0.00 98 1011.3
20260509123906 69 250 0.0 0.0 0.00 0.00 0.00 98 1011.6
20260509123403 69 233 0.0 0.0 0.00 0.00 0.00 98 1011.3
20260509122858 69 188 0.0 0.0 0.00 0.00 0.00 98 1011.4
20260509122355 68 188 0.0 0.0 0.00 0.00 0.00 98 1011.5
20260509121852 68 187 0.0 0.0 0.00 0.00 0.00 98 1011.6
20260509121349 68 187 0.0 0.0 0.00 0.00 0.00 97 1011.3
20260509120848 68 187 0.0 0.0 0.00 0.00 0.00 97 1011.5
20260509120345 68 187 0.0 0.0 0.00 0.00 0.00 97 1011.5
20260509115843 68 187 0.0 0.0 0.00 0.00 0.00 97 1011.5
20260509115340 68 187 0.0 0.0 0.00 0.00 0.00 97 1011.6
20260509114838 68 187 0.0 0.0 0.00 0.00 0.00 97 1011.3
20260509114336 68 187 0.0 0.0 0.00 0.00 0.00 96 1011.0
20260509113835 69 186 0.0 0.0 0.00 0.00 0.00 96 1011.0
20260509113331 69 188 0.0 0.0 0.00 0.00 0.00 96 1011.1
20260509112828 69 189 0.0 0.0 0.00 0.00 0.00 96 1010.8
20260509112325 69 189 0.0 0.0 0.00 0.00 0.00 96 1010.7
20260509111822 69 188 0.0 0.0 0.00 0.00 0.00 95 1010.7
20260509111319 69 188 0.0 0.0 0.00 0.00 0.00 95 1010.7
20260509110817 70 181 0.9 0.9 0.00 0.00 0.00 95 1010.5
20260509110313 70 190 0.9 0.9 0.00 0.00 0.00 95 1010.6
20260509105811 70 191 0.9 0.9 0.00 0.00 0.00 95 1010.4
20260509105309 70 195 0.0 0.0 0.00 0.00 0.00 95 1010.4
20260509104805 70 197 0.0 0.0 0.00 0.00 0.00 95 1010.4
20260509104302 70 196 0.0 0.0 0.00 0.00 0.00 95 1010.5
20260509103800 70 196 0.0 0.0 0.00 0.00 0.00 95 1010.5
20260509103257 70 196 0.0 0.0 0.00 0.00 0.00 95 1010.6
20260509102756 70 196 0.0 0.0 0.00 0.00 0.00 95 1010.7
20260509102253 70 197 0.0 0.0 0.00 0.00 0.00 95 1010.6
20260509101749 70 197 0.0 0.0 0.00 0.00 0.00 95 1010.4
20260509101245 70 240 0.0 0.0 0.00 0.00 0.00 95 1010.3
20260509100742 70 245 0.0 0.0 0.00 0.00 0.00 95 1010.4
20260509100240 70 246 0.0 0.0 0.00 0.00 0.00 95 1010.3
20260509095736 70 237 0.0 0.0 0.00 0.00 0.00 95 1010.4
20260509095234 69 234 0.0 0.0 0.00 0.00 0.00 95 1010.4
20260509094731 69 234 0.0 0.0 0.00 0.00 0.00 95 1010.0
20260509094227 69 234 0.0 0.0 0.00 0.00 0.00 95 1010.0
20260509093725 69 234 0.0 0.0 0.00 0.00 0.00 95 1010.0
20260509093222 69 235 0.0 0.0 0.00 0.00 0.00 95 1009.8
20260509092720 69 219 0.0 0.0 0.00 0.00 0.00 95 1009.7
20260509092218 69 181 0.0 0.0 0.00 0.00 0.00 95 1009.2
20260509091716 69 154 1.7 1.7 0.00 0.00 0.00 95 1008.9
20260509091212 69 161 0.0 0.9 0.00 0.00 0.00 94 1008.9
20260509090710 70 176 0.0 0.0 0.00 0.00 0.00 94 1008.7
20260509090207 70 148 1.7 1.7 0.00 0.00 0.00 95 1008.4
20260509085705 70 88 1.7 2.6 0.00 0.00 0.00 94 1008.7
20260509085201 70 117 3.5 4.3 0.00 0.00 0.00 94 1008.8
20260509084658 70 187 2.6 2.6 0.00 0.00 0.00 94 1009.1
20260509084154 70 202 1.7 2.6 0.00 0.00 0.00 94 1009.4
20260509083653 70 175 3.5 5.2 0.00 0.00 0.00 94 1009.3
20260509083148 70 191 2.6 4.3 0.00 0.00 0.00 94 1009.5
20260509082646 70 184 0.9 1.7 0.00 0.00 0.00 94 1009.7
20260509082142 70 184 0.9 1.7 0.00 0.00 0.00 93 1010.0
20260509081639 70 179 0.9 0.9 0.00 0.00 0.00 93 1010.3
20260509081137 70 183 3.5 5.2 0.00 0.00 0.00 93 1010.9
20260509080635 70 138 1.7 1.7 0.00 0.00 0.00 92 1010.7
20260509080132 71 165 0.9 0.9 0.00 0.00 0.00 92 1010.8
20260509075630 71 155 1.7 1.7 0.00 0.00 0.00 92 1011.0
20260509075128 71 190 0.9 0.9 0.00 0.00 0.00 92 1011.2
20260509074624 71 175 0.0 0.9 0.00 0.00 0.00 91 1011.3
20260509074121 71 184 0.0 0.9 0.00 0.00 0.00 91 1011.5
20260509073618 71 186 0.0 0.0 0.00 0.00 0.00 91 1011.4
20260509073114 71 191 0.0 0.9 0.00 0.00 0.00 91 1012.0
20260509072611 71 184 1.7 2.6 0.00 0.00 0.00 91 1011.6
20260509072108 71 181 2.6 2.6 0.00 0.00 0.00 92 1011.9
20260509071604 70 196 0.9 0.9 0.00 0.00 0.00 92 1012.1
20260509071102 70 208 0.9 0.9 0.00 0.00 0.00 92 1012.1
20260509070559 70 227 0.0 0.9 0.00 0.00 0.00 92 1012.1
20260509070055 70 213 0.0 0.0 0.00 0.00 0.00 92 1011.8
20260509065550 70 209 0.0 0.0 0.00 0.00 0.00 92 1011.8
20260509065047 70 212 0.9 0.9 0.00 0.00 0.00 92 1011.5
20260509064544 70 200 0.0 0.0 0.00 0.00 0.00 92 1011.3
20260509064042 70 182 1.7 1.7 0.00 0.00 0.00 92 1011.2
20260509063537 70 168 1.7 1.7 0.00 0.00 0.00 92 1011.2
20260509063035 70 202 0.0 0.0 0.00 0.00 0.00 92 1011.4
20260509062532 70 188 0.0 0.0 0.00 0.00 0.00 92 1011.4
20260509062030 70 191 0.0 0.0 0.00 0.00 0.00 91 1011.7
20260509061526 70 203 0.0 0.0 0.00 0.00 0.00 91 1011.5
20260509061024 70 180 0.9 0.9 0.00 0.00 0.00 91 1011.7
20260509060521 70 204 0.0 0.0 0.00 0.00 0.00 91 1012.2
20260509060017 70 194 0.0 0.0 0.00 0.00 0.00 90 1012.2
20260509055512 71 198 0.0 0.9 0.00 0.00 0.00 90 1012.0
20260509055009 71 229 0.0 0.0 0.00 0.00 0.00 89 1012.5
20260509054505 71 228 0.9 0.9 0.00 0.00 0.00 88 1012.2
20260509054004 71 189 0.9 0.9 0.00 0.00 0.00 88 1012.0
20260509053502 71 177 1.7 1.7 0.00 0.00 0.00 88 1012.4
20260509052958 71 235 0.0 0.9 0.00 0.00 0.00 88 1012.7
20260509052456 71 246 0.0 0.9 0.00 0.00 0.00 88 1012.8
20260509051954 71 267 0.9 0.9 0.00 0.00 0.00 88 1012.8
20260509051451 71 245 1.7 1.7 0.00 0.00 0.00 87 1012.4
20260509050948 71 191 0.0 0.0 0.00 0.00 0.00 87 1011.9
20260509050445 71 187 0.9 0.9 0.00 0.00 0.00 87 1011.7
20260509045941 71 177 1.7 1.7 0.00 0.01 0.01 86 1011.5
20260509045439 72 205 0.0 0.0 0.00 0.01 0.01 86 1011.4
20260509044935 72 193 0.9 0.9 0.00 0.01 0.01 85 1011.2
20260509044434 72 173 2.6 2.6 0.00 0.01 0.01 85 1011.0
20260509043931 72 189 0.9 0.9 0.00 0.01 0.01 85 1011.3
20260509043426 72 199 0.9 0.9 0.00 0.01 0.01 84 1011.3
20260509042921 72 182 0.0 0.9 0.00 0.01 0.01 84 1011.3
20260509042419 72 193 0.9 0.9 0.00 0.01 0.01 83 1010.9
20260509041915 72 211 3.5 4.3 0.00 0.01 0.01 83 1011.3
20260509041412 73 164 0.9 0.9 0.00 0.01 0.01 82 1011.6
20260509040910 73 137 1.7 1.7 0.00 0.01 0.01 81 1011.9
20260509040408 72 186 0.9 0.9 0.00 0.01 0.01 82 1012.2
20260509035905 72 213 0.0 0.0 0.00 0.01 0.01 82 1012.3
20260509035402 72 212 0.0 0.0 0.00 0.01 0.01 82 1012.3
20260509034858 72 206 0.0 0.0 0.00 0.01 0.01 82 1012.0
20260509034355 72 202 0.9 0.9 0.00 0.01 0.01 82 1012.3
20260509033852 72 198 0.0 0.0 0.00 0.01 0.01 82 1012.0
20260509033350 72 198 0.0 0.0 0.00 0.01 0.01 82 1011.9
20260509032846 72 205 0.0 0.0 0.00 0.01 0.01 82 1011.6
20260509032343 72 204 0.0 0.0 0.00 0.01 0.01 82 1011.4
20260509031842 72 200 0.9 1.7 0.00 0.01 0.01 82 1011.4
20260509031338 72 187 0.9 0.9 0.00 0.01 0.01 82 1011.4
20260509030836 72 174 0.9 0.9 0.00 0.01 0.01 82 1011.6
20260509030334 72 186 0.0 0.0 0.00 0.01 0.01 82 1011.6
20260509025831 72 182 0.0 0.9 0.00 0.01 0.01 82 1011.3
20260509025326 72 154 0.9 0.9 0.00 0.01 0.01 82 1011.2
20260509024821 72 187 0.0 0.9 0.00 0.01 0.01 82 1011.0
20260509024318 72 201 0.9 0.9 0.00 0.01 0.01 82 1010.7
20260509023815 72 145 1.7 1.7 0.00 0.01 0.01 82 1010.8
20260509023312 72 177 0.0 0.0 0.00 0.01 0.01 82 1010.8
20260509022809 72 176 0.0 0.9 0.00 0.01 0.01 81 1010.7
20260509022307 73 189 1.7 1.7 0.00 0.01 0.01 81 1010.6
20260509021803 73 178 1.7 1.7 0.00 0.01 0.01 80 1010.5
20260509021300 73 182 0.9 0.9 0.00 0.01 0.01 81 1010.6
20260509020757 73 182 0.0 0.0 0.00 0.01 0.01 81 1010.4
20260509020255 73 197 0.9 0.9 0.00 0.01 0.01 81 1010.5
20260509015753 73 191 0.0 0.0 0.00 0.01 0.01 80 1010.5
20260509015251 73 189 4.3 6.1 0.00 0.01 0.01 80 1010.6
20260509014747 73 180 1.7 4.3 0.00 0.01 0.01 80 1010.5
20260509014244 73 195 2.6 2.6 0.00 0.01 0.01 80 1010.4
20260509013741 73 183 1.7 1.7 0.00 0.01 0.01 80 1010.6
20260509013236 73 198 0.9 0.9 0.00 0.01 0.01 80 1010.3
20260509012733 73 192 0.9 1.7 0.00 0.01 0.01 80 1010.2
20260509012230 73 188 0.9 1.7 0.00 0.01 0.01 79 1010.3
20260509011727 73 197 0.9 0.9 0.00 0.01 0.01 79 1010.1
20260509011225 73 185 0.9 0.9 0.00 0.01 0.01 79 1010.0
20260509010723 73 193 1.7 2.6 0.00 0.01 0.01 79 1009.9
20260509010219 73 185 1.7 1.7 0.00 0.01 0.01 79 1009.9
20260509005716 73 192 0.9 1.7 0.00 0.01 0.01 78 1009.8
20260509005214 73 185 2.6 4.3 0.00 0.01 0.01 78 1009.9
20260509004713 73 187 0.9 0.9 0.00 0.01 0.01 78 1010.0
20260509004212 73 182 0.9 0.9 0.00 0.01 0.01 77 1010.0
20260509003709 73 200 0.0 0.9 0.00 0.01 0.01 77 1009.6
20260509003207 74 193 0.9 0.9 0.00 0.01 0.01 76 1009.6
20260509002704 74 180 0.9 2.6 0.00 0.01 0.01 76 1009.6
20260509002201 74 189 0.9 0.9 0.00 0.01 0.01 76 1009.7
20260509001659 74 137 1.7 1.7 0.00 0.01 0.01 75 1009.7
20260509001155 74 181 0.0 0.0 0.00 0.01 0.01 75 1010.0
20260509000653 75 214 2.6 2.6 0.00 0.01 0.01 74 1009.7
20260509000149 75 134 1.7 2.6 0.00 0.01 0.01 73 1009.9
20260508235647 75 175 1.7 1.7 0.00 0.01 0.01 73 1010.1
20260508235143 75 178 0.9 0.9 0.00 0.01 0.01 74 1010.1
20260508234641 74 192 0.9 0.9 0.00 0.01 0.01 74 1010.2
20260508234137 75 192 0.9 0.9 0.00 0.01 0.01 73 1010.0
20260508233636 75 151 1.7 1.7 0.00 0.01 0.01 72 1010.2
20260508233134 75 183 2.6 2.6 0.00 0.01 0.01 72 1010.2
20260508232631 75 159 1.7 2.6 0.00 0.01 0.01 72 1010.4
20260508232128 75 171 3.5 4.3 0.00 0.01 0.01 72 1010.2
20260508231625 76 175 2.6 4.3 0.00 0.01 0.01 71 1010.2